This is the latest recevied weather packets stored in our database for station/object KC5DAQ-27. If no packets are shown the sender has not sent any weather packets the latest 10 day(s).
| Time | Temp. | Humidity | Pressure | Rain* | Wind** | Luminosity | Snow |
|---|---|---|---|---|---|---|---|
| 1778257542 | 21.11° C | 89% | 1003.6 hPa | 0 mm | - | 218 W/m² | - |
| 1778257482 | 21.11° C | 89% | 1003.6 hPa | 0 mm | - | 220 W/m² | - |
| 1778257420 | 21.11° C | 89% | 1003.6 hPa | 0 mm | - | 234 W/m² | - |
| 1778257358 | 21.11° C | 89% | 1003.6 hPa | 0 mm | - | 253 W/m² | - |
| 1778257297 | 21.11° C | 89% | 1003.6 hPa | 0 mm | - | 278 W/m² | - |
| 1778257236 | 21.11° C | 89% | 1003.5 hPa | 0 mm | - | 304 W/m² | - |
| 1778257173 | 21.11° C | 89% | 1003.7 hPa | 0 mm | - | 369 W/m² | - |
| 1778257112 | 21.11° C | 89% | 1003.7 hPa | 0 mm | - | 375 W/m² | - |
| 1778257051 | 21.11° C | 89% | 1003.7 hPa | 0 mm | - | 368 W/m² | - |
| 1778256991 | 20.56° C | 89% | 1003.7 hPa | 0 mm | - | 368 W/m² | - |
| 1778256933 | 20.56° C | 89% | 1003.7 hPa | 0 mm | - | 357 W/m² | - |
| 1778256871 | 20.56° C | 89% | 1003.7 hPa | 0 mm | - | 332 W/m² | - |
| 1778256811 | 20.56° C | 89% | 1003.7 hPa | 0 mm | - | 285 W/m² | - |
| 1778256752 | 20.56° C | 89% | 1003.7 hPa | 0 mm | - | 273 W/m² | - |
| 1778256692 | 20.56° C | 89% | 1003.8 hPa | 0 mm | - | 264 W/m² | - |
| 1778256631 | 20.56° C | 89% | 1003.8 hPa | 0 mm | - | 260 W/m² | - |
| 1778256572 | 20.56° C | 89% | 1003.8 hPa | 0 mm | - | 255 W/m² | - |
| 1778256513 | 20.56° C | 89% | 1003.8 hPa | 0 mm | - | 248 W/m² | - |
| 1778256441 | 20.56° C | 89% | 1003.9 hPa | 0 mm | - | 262 W/m² | - |
| 1778256379 | 20.56° C | 89% | 1003.9 hPa | 0 mm | - | 269 W/m² | - |
| 1778256318 | 20.56° C | 89% | 1003.9 hPa | 0 mm | - | 266 W/m² | - |
| 1778256256 | 20.56° C | 89% | 1003.9 hPa | 0 mm | - | 273 W/m² | - |
| 1778256194 | 20.56° C | 89% | 1003.8 hPa | 0 mm | - | 422 W/m² | - |
| 1778256132 | 20.56° C | 89% | 1003.7 hPa | 0 mm | - | 424 W/m² | - |
| 1778256072 | 20.56° C | 89% | 1003.7 hPa | 0 mm | - | 410 W/m² | - |
* Rain latest hour (hover to see other rain measurements)
** Current wind speed in m/s (hover to see current wind gust speed)